Terminal Aerodrome Forecast
Issued by NWS

Home | Current Version | Previous Version | Text Only | Print | Product List | Glossary On
Versions: 1 2 3 4 5 6 7 8 9 10 11 12
645
FTUS45 KABQ 112336
TAFFMN
TAF
KFMN 112336Z 1200/1224 28007KT P6SM FEW250
     FM120300 VRB06KT P6SM SKC
     FM120800 08006KT P6SM SKC
     FM122000 27006KT P6SM SKC=

USA.gov is the U.S. government's official web portal to all federal, state and local government web resources and services.